Weather History for Wright-Patt AFB, OH

Change the Weather History Date:

Thursday, January 30, 2014

  Actual Average Record
Temperature  
Mean Temperature 20 °F -  
Max Temperature 30 °F 36 °F 66 °F (2013)
Min Temperature 9 °F 19 °F -2 °F (2004)
Degree Days  
Heating Degree Days 46    
Moisture  
Dew Point 3 °F    
Average Humidity 47    
Maximum Humidity 61    
Minimum Humidity 35    
Precipitation  
Precipitation 0.00 in - - ()
Snow  
Snow 0.00 in - - ()
Snow Depth 1.00 in    
Sea Level Pressure  
Sea Level Pressure 30.13 in    
Wind  
Wind Speed 10 mph (South)    
Max Wind Speed 18 mph    
Max Gust Speed 26 mph    
Visibility 10 miles    
Events      
Averages and records for this station are not official NWS values.
T = Trace of Precipitation, MM = Missing Value Source: NWS Daily Summary

Daily Weather History Graph

Daily Weather History Graph

Search for Another Location

Airport:

Trip Planner

Search our weather history database for the weather conditions in past years. The results will help you decide how hot, cold, wet, or windy it might be!

Date:

Astronomy

Jan. 30, 2014 Rise Set
Actual Time 7:46 AM EST 5:53 PM EST
Civil Twilight 7:17 AM EST 6:22 PM EST
Nautical Twilight 6:45 AM EST 6:54 PM EST
Astronomical Twilight 6:13 AM EST 7:26 PM EST
Moon 7:11 AM EST (1/30) 6:03 PM EST (1/30)
Length of Visible Light 11h 04m
Length of Day
10h 07m
Waning Crescent, 0% of the Moon is Illuminated
Jan 30
Waning Crescent
Jan 30
New
Feb 6
First Quarter
Feb 14
Full
Feb 22
Last Quarter

Hourly Weather History & Observations

Time (EST) Temp. Windchill Dew Point Humidity Pressure Visibility Wind Dir Wind Speed Gust Speed Precip Events Conditions
12:58 AM 12.2 °F 2.9 °F -0.6 °F 57% 30.30 in 10.0 mi South 5.8 mph - N/A   Clear
1:58 AM 10.6 °F -0.2 °F -1.5 °F 58% 30.29 in 10.0 mi SSE 6.9 mph - N/A   Clear
2:58 AM 12.0 °F 0.5 °F -0.8 °F 57% 30.28 in 10.0 mi South 8.1 mph - N/A   Clear
3:58 AM 12.0 °F -1.3 °F -0.9 °F 56% 30.27 in 10.0 mi South 10.4 mph - N/A   Clear
4:58 AM 11.3 °F -0.4 °F -1.1 °F 57% 30.28 in 10.0 mi SSE 8.1 mph - N/A   Clear
5:58 AM 9.3 °F -1.7 °F -1.7 °F 61% 30.27 in 10.0 mi SSE 6.9 mph - N/A   Clear
6:58 AM 9.1 °F -4.0 °F -2.6 °F 59% 30.29 in 10.0 mi South 9.2 mph - N/A   Clear
7:58 AM 10.4 °F -2.4 °F -2.0 °F 57% 30.27 in 10.0 mi South 9.2 mph - N/A   Clear
8:58 AM 12.7 °F 0.4 °F -1.5 °F 53% 30.26 in 10.0 mi South 9.2 mph - N/A   Clear
9:58 AM 16.7 °F 3.8 °F 0.1 °F 48% 30.27 in 10.0 mi South 11.5 mph - N/A   Partly Cloudy
10:58 AM 21.6 °F 7.3 °F 1.8 °F 42% 30.22 in 10.0 mi South 17.3 mph - N/A   Overcast
11:58 AM 23.2 °F 9.0 °F 3.0 °F 42% 30.18 in 10.0 mi South 18.4 mph - N/A   Mostly Cloudy
12:58 PM 25.5 °F 12.9 °F 2.7 °F 37% 30.10 in 10.0 mi South 16.1 mph 26.5 mph N/A   Overcast
1:58 PM 27.3 °F 14.4 °F 3.0 °F 35% 30.07 in 10.0 mi South 18.4 mph 23.0 mph N/A   Mostly Cloudy
2:58 PM 28.4 °F 16.2 °F 5.4 °F 38% 30.03 in 10.0 mi SSE 17.3 mph - N/A   Overcast
3:58 PM 29.1 °F 17.5 °F 5.4 °F 37% 30.01 in 10.0 mi South 16.1 mph - N/A   Overcast
4:58 PM 29.7 °F 18.2 °F 6.6 °F 38% 29.96 in 10.0 mi SSE 16.1 mph - N/A   Overcast
5:58 PM 29.5 °F 18.8 °F 7.2 °F 39% 29.94 in 10.0 mi SSE 13.8 mph - N/A   Overcast
6:58 PM 30.4 °F 19.5 °F 6.1 °F 36% 29.96 in 10.0 mi South 15.0 mph 23.0 mph N/A   Overcast
7:58 PM 29.8 °F 19.8 °F 9.5 °F 43% 29.99 in 10.0 mi South 12.7 mph - N/A   Overcast
8:58 PM 30.2 °F 21.9 °F 10.8 °F 44% 29.99 in 10.0 mi SSW 9.2 mph - N/A   Overcast
9:58 PM 30.2 °F 21.3 °F 11.1 °F 45% 29.99 in 10.0 mi SSW 10.4 mph - N/A   Scattered Clouds
10:58 PM 30.9 °F 22.2 °F 12.2 °F 46% 30.00 in 10.0 mi SSW 10.4 mph - N/A   Overcast
11:58 PM 30.9 °F 21.2 °F 10.9 °F 43% 30.01 in 10.0 mi SW 12.7 mph - N/A   Mostly Cloudy